Other Public Products
Issued by NWS Charleston, SC

Current Version | Previous Version | Graphics & Text | Print | Product List | Glossary On
Versions: 1 2 3 4 5 6 7 8 9 10 11 12 13 14 15 16 17 18 19 20 21 22 23 24 25 26 27 28 29 30 31 32 33 34 35 36 37 38 39 40 41 42 43 44 45 46 47 48 49 50
000
FPUS82 KCHS 210540
OPUCHS

TEST...KCHS/KSAV Gateway Observations...TEST
National Weather Service Charleston SC
100 AM EDT THU SEP 21 2017

NOTE: "fair" indicates few or no clouds below 12,000 feet with no
significant weather and/or obstructions to visibility.

SCZ050-WAZ558-NCZ071-TXZ119-213-PAZ071-DCZ001-FLZ074-172-MI076-
NYZ176-178-MAZ016-IL014-TNZ027-NJZ106-GAZ044-MD014-210600-

...Gateway Observations for Charleston International...

CITY           SKY/WX    TMP DP  RH WIND       PRES   REMARKS
Chas Airport   CLEAR     76  73  91 CALM      30.01F
Seattle        MOCLDY    52  48  86 S7        29.82S
Charlotte      PTCLDY    72  71  97 NW3       30.04S
Dallas DFW     CLOUDY    86  70  58 S13       29.88R HX  90
Dallas Love    CLOUDY    86  70  58 SE16G23   29.90R HX  90
Philladelphia  PTCLDY    73  64  73 N3        29.97R
Wash National  CLEAR     73  67  81 CALM      30.00R
Baltimore      CLEAR     65  63  93 NW6       29.98S
Miami          CLOUDY    83  76  79 E6        29.96F HX  91
Detroit        PTCLDY    69  67  93 CALM      30.04R FOG
Newark         MOCLDY    74  62  66 N12       29.94S
Laguardia      CLOUDY    74  64  71 NW10      29.93R
J F K          MOCLDY    75  64  68 N12       29.94S
Boston Logan   NOT AVBL
Ft. Lauderdale MOCLDY    81  77  88 E6        29.95F
Chicago O`Hare CLOUDY    80  67  64 S9        29.92F
Chicago Midway CLOUDY    80  68  66 S7        29.93S
Houston Bush   PTCLDY    81  76  84 S5        29.96R
Houston Hobby  PTCLDY    82  76  81 SE6       29.95S
Nashville      CLEAR     74  70  87 S3        30.04S
Atlanta        PTCLDY    74  67  78 NW5       30.05F

$$

GAZ044-118-TXZ119-213-NCZ071-DCZ001-MDZ014-506-PAZ021-071-NJZ106-
NYZ176-178-MAZ106-OHZ011-021-055-MIZ076-KYZ091-ILZ014-INZ047-
MNZ060-ONZ431-210600-

...Gateway Observations for Savannah International...

CITY           SKY/WX    TMP DP  RH WIND       PRES   REMARKS
Savannah Arpt  CLEAR     72  70  93 CALM      30.02S
Atlanta        PTCLDY    74  67  78 NW5       30.05F
Charlotte      PTCLDY    72  71  97 NW3       30.04S
Dallas DFW     CLOUDY    86  70  58 S13       29.88R HX  90
Houston Bush   PTCLDY    81  76  84 S5        29.96R
Wash National  CLEAR     73  67  81 CALM      30.00R
Wash Dulles    CLEAR     62  62 100 CALM      30.01R
Baltimore      CLEAR     65  63  93 NW6       29.98S
Philadelphia   PTCLDY    73  64  73 N3        29.97R
Newark         MOCLDY    74  62  66 N12       29.94S
Laguardia      CLOUDY    74  64  71 NW10      29.93R
J F K          MOCLDY    75  64  68 N12       29.94S
Boston         NOT AVBL
Pittsburg      PTCLDY    67  64  90 CALM      30.05S
Akron          CLEAR     68  63  84 CALM      30.05S
Cleveland      CLEAR     71  62  73 CALM      30.04S
Cincinnati     CLEAR     71  70  96 S5        30.03S
Columbus       CLEAR     66  67 100 CALM      30.04R
Detroit        PTCLDY    69  67  93 CALM      30.04R FOG
Chicago O`Hare CLOUDY    80  67  64 S9        29.92F
Minneapolis    CLEAR     62  52  69 CALM      29.97R
Indianapolis   CLEAR     75  70  84 SE8       30.01R
Toronto Canada CLEAR     68  61  77 SE3       30.04S

$$




USA.gov is the U.S. government's official web portal to all federal, state and local government web resources and services.